Weather History for Flippin, AR

Change the Weather History Date:

Friday, November 9, 2012

  Actual Average Record
Temperature  
Mean Temperature 60 °F -  
Max Temperature 71 °F 59 °F 84 °F (2006)
Min Temperature 50 °F 40 °F 30 °F (2008)
Degree Days  
Heating Degree Days 4    
Growing Degree Days 10 (Base 50)    
Moisture  
Dew Point 44 °F    
Average Humidity 56    
Maximum Humidity 62    
Minimum Humidity 48    
Precipitation  
Precipitation 0.00 in - - ()
Sea Level Pressure  
Sea Level Pressure 30.02 in    
Wind  
Wind Speed 6 mph (SSE)    
Max Wind Speed 15 mph    
Max Gust Speed 22 mph    
Visibility 10 miles    
Events      
Averages and records for this station are not official NWS values.
T = Trace of Precipitation, MM = Missing Value Source: NWS Daily Summary

Daily Weather History Graph

Daily Weather History Graph

Search for Another Location

Airport:

Trip Planner

Search our weather history database for the weather conditions in past years. The results will help you decide how hot, cold, wet, or windy it might be!

Date:

Astronomy

Nov. 09, 2012 Rise Set
Actual Time 6:41 AM CST 5:06 PM CST
Civil Twilight 6:14 AM CST 5:33 PM CST
Nautical Twilight 5:43 AM CST 6:04 PM CST
Astronomical Twilight 5:13 AM CST 6:34 PM CST
Moon 1:49 AM CST (11/9) 2:12 PM CST (11/9)
Length of Visible Light 11h 18m
Length of Day
10h 24m
Waning Crescent, 23% of the Moon is Illuminated
Nov 9
Waning Crescent
Nov 13
New
Nov 20
First Quarter
Nov 28
Full
Dec 6
Last Quarter

Hourly Weather History & Observations

Time (CST) Temp. Dew Point Humidity Pressure Visibility Wind Dir Wind Speed Gust Speed Precip Events Conditions
12:35 AM 50.0 °F 35.6 °F 58% 30.06 in 10.0 mi SE 4.6 mph - N/A   Clear
1:35 AM 50.0 °F 35.6 °F 58% 30.05 in 10.0 mi SE 5.8 mph - N/A   Clear
1:55 AM 50.0 °F 35.6 °F 58% 30.05 in 10.0 mi SE 3.5 mph - N/A   Clear
2:35 AM 51.8 °F 37.4 °F 58% 30.05 in 10.0 mi SSE 4.6 mph - N/A   Clear
2:55 AM 51.8 °F 37.4 °F 58% 30.05 in 10.0 mi SSE 5.8 mph - N/A   Clear
3:15 AM 51.8 °F 37.4 °F 58% 30.05 in 10.0 mi SSE 5.8 mph - N/A   Clear
3:55 AM 51.8 °F 37.4 °F 58% 30.04 in 10.0 mi SSE 4.6 mph - N/A   Clear
4:55 AM 53.6 °F 37.4 °F 54% 30.05 in 10.0 mi SSE 4.6 mph - N/A   Clear
5:15 AM 53.6 °F 37.4 °F 54% 30.05 in 10.0 mi SSE 4.6 mph - N/A   Clear
6:15 AM 51.8 °F 39.2 °F 62% 30.05 in 10.0 mi SSE 4.6 mph - N/A   Clear
6:35 AM 53.6 °F 39.2 °F 58% 30.05 in 10.0 mi SSE 6.9 mph - N/A   Clear
6:55 AM 53.6 °F 39.2 °F 58% 30.05 in 10.0 mi SSE 4.6 mph - N/A   Clear
7:16 AM 53.6 °F 39.2 °F 58% 30.06 in 10.0 mi South 4.6 mph - N/A   Clear
7:35 AM 53.6 °F 41.0 °F 62% 30.06 in 10.0 mi SSE 5.8 mph - N/A   Clear
8:55 AM 59.0 °F 44.6 °F 59% 30.07 in 10.0 mi South 8.1 mph - N/A   Clear
9:35 AM 60.8 °F 46.4 °F 59% 30.07 in 10.0 mi South 6.9 mph 18.4 mph N/A   Mostly Cloudy
9:55 AM 62.6 °F 48.2 °F 59% 30.06 in 10.0 mi South 8.1 mph 18.4 mph N/A   Overcast
10:16 AM 62.6 °F 48.2 °F 59% 30.07 in 10.0 mi SSW 15.0 mph 21.9 mph N/A   Overcast
10:35 AM 62.6 °F 48.2 °F 59% 30.07 in 10.0 mi SSW 11.5 mph 19.6 mph N/A   Overcast
10:55 AM 64.4 °F 50.0 °F 59% 30.06 in 10.0 mi South 9.2 mph 16.1 mph N/A   Overcast
11:35 AM 64.4 °F 50.0 °F 59% 30.05 in 10.0 mi South 9.2 mph - N/A   Overcast
11:55 AM 64.4 °F 50.0 °F 59% 30.04 in 10.0 mi South 6.9 mph - N/A   Overcast
12:15 PM 66.2 °F 51.8 °F 60% 30.03 in 10.0 mi SSW 15.0 mph 21.9 mph N/A   Mostly Cloudy
12:55 PM 68.0 °F 51.8 °F 56% 30.00 in 10.0 mi South 6.9 mph - N/A   Clear
1:55 PM 71.6 °F 51.8 °F 50% 29.98 in 10.0 mi South 6.9 mph - N/A   Clear
3:15 PM 71.6 °F 51.8 °F 50% 29.97 in 10.0 mi South 10.4 mph 16.1 mph N/A   Clear
3:55 PM 71.6 °F 51.8 °F 50% 29.97 in 10.0 mi South 10.4 mph 16.1 mph N/A   Clear
4:35 PM 69.8 °F 51.8 °F 53% 29.97 in 10.0 mi South 11.5 mph 16.1 mph N/A   Clear
5:15 PM 66.2 °F 50.0 °F 56% 29.98 in 10.0 mi SSE 8.1 mph - N/A   Clear
5:35 PM 64.4 °F 50.0 °F 59% 29.98 in 10.0 mi SSE 4.6 mph - N/A   Clear
6:15 PM 64.4 °F 48.2 °F 56% 29.98 in 10.0 mi SSE 4.6 mph - N/A   Clear
6:35 PM 62.6 °F 48.2 °F 59% 29.98 in 10.0 mi SE 3.5 mph - N/A   Clear
6:55 PM 62.6 °F 48.2 °F 59% 29.98 in 10.0 mi SE 4.6 mph - N/A   Clear
7:35 PM 62.6 °F 46.4 °F 55% 29.99 in 10.0 mi SE 6.9 mph - N/A   Clear
7:55 PM 62.6 °F 46.4 °F 55% 29.99 in 10.0 mi SE 5.8 mph - N/A   Clear
8:15 PM 62.6 °F 44.6 °F 52% 30.00 in 10.0 mi SSE 4.6 mph - N/A   Clear
8:35 PM 62.6 °F 44.6 °F 52% 30.00 in 10.0 mi SSE 8.1 mph - N/A   Clear
8:55 PM 62.6 °F 44.6 °F 52% 30.00 in 10.0 mi SSE 9.2 mph - N/A   Clear
9:36 PM 62.6 °F 42.8 °F 48% 30.00 in 10.0 mi SSE 9.2 mph - N/A   Clear
9:55 PM 62.6 °F 42.8 °F 48% 30.00 in 10.0 mi SSE 4.6 mph - N/A   Clear
10:56 PM 62.6 °F 42.8 °F 48% 29.99 in 10.0 mi SSE 5.8 mph - N/A   Clear
11:15 PM 60.8 °F 42.8 °F 52% 29.99 in 10.0 mi SSE 5.8 mph - N/A   Clear
11:35 PM 60.8 °F 42.8 °F 52% 29.99 in 10.0 mi South 3.5 mph - N/A   Clear